Location: Linton
(52.0940°N, 0.2850°E)
Time: 22:06:41
(UTC+00:00)

ISS - Pass Details

Date: 11 November 2017
Orbit: 402 x 407 km, 51.6° (Epoch: 23 November)

Event Time Altitude Azimuth Distance (km) Brightness Sun altitude
Exits shadow 04:09:39 19° 90° (E) 1,042 -1.0 -27.9°
Drops below altitude 10° 04:10:40 10° 90° (E) 1,458 -0.1 -27.8°
Sets 04:12:45 0° 90° (E) 2,317 1.3 -27.5°
